Regional Weather Roundup
Issued by NWS

Home | Current Version | Previous Version | Graphics & Text | Print | Product List | Glossary On
Versions: 1 2 3 4 5 6 7 8 9 10 11 12 13 14 15 16 17 18 19 20 21 22 23 24 25 26 27 28 29 30 31 32 33 34 35 36 37 38 39 40 41 42 43 44 45 46 47 48 49 50
000
ASUS43 KOAX 211110
RWRNE

WEATHER ROUNDUP FOR NEBRASKA
NATIONAL WEATHER SERVICE OMAHA NE
600 AM CDT SUN SEP 21 2014

NOTES: SATELLITE DATA IS BEING USED TO AUGMENT CLOUD COVER ABOVE
       12000 FEET.
       "FAIR" INDICATES FEW OR NO CLOUDS BELOW 12,000 FEET WITH NO
       SIGNIFICANT WEATHER AND/OR OBSTRUCTIONS TO VISIBILITY.

  * THESE STATIONS DO NOT REPORT WEATHER SUCH AS RAIN...SNOW OR FOG.

NEZ001>004-019>022-054>056-211200-
NEBRASKA PANHANDLE

CITY           SKY/WX    TMP DP  RH WIND       PRES   REMARKS
SCOTTSBLUFF    MOCLDY    49  43  80 W3        30.35S
ALLIANCE       MOCLDY    44  40  85 NW6       30.34S
CHADRON        CLEAR     40  37  89 SW5       30.33F
KIMBALL        MOCLDY    52  42  67 CALM      30.35S
SIDNEY         MOCLDY    54  45  71 NW6       30.36R
$$

NEZ057>060-069>072-079>082-211200-
SOUTHWEST NEBRASKA

CITY           SKY/WX    TMP DP  RH WIND       PRES   REMARKS
NORTH PLATTE   CLEAR     42  40  92 NW3       30.29R
IMPERIAL       PTCLDY    52  44  74 NW3       30.30R
LEXINGTON      CLEAR     47  45  90 NW6       30.25S
MCCOOK         CLEAR     49  46  90 W3        30.27R
OGALLALA       CLOUDY    52  49  90 CALM      30.31S
$$

NEZ005>010-023>029-035>040-094-211200-
NORTH CENTRAL NEBRASKA

CITY           SKY/WX    TMP DP  RH WIND       PRES   REMARKS
VALENTINE      CLEAR     46  39  76 NW9       30.28R
AINSWORTH      CLEAR     46  38  75 W7        30.27R
BROKEN BOW     CLEAR     49  40  71 N8        30.26R
O`NEILL        CLEAR     48  43  80 W8        30.23R
ORD            CLEAR     45  42  89 NW7       30.22R
THEDFORD       CLEAR     46  40  79 W3        30.30R
$$

NEZ041-046>049-061>064-073>077-083>087-211200-
SOUTH CENTRAL NEBRASKA

CITY           SKY/WX    TMP DP  RH WIND       PRES   REMARKS
GRAND ISLAND   CLEAR     49  44  83 W6        30.22R
AURORA         CLEAR     50  45  83 NW6       30.20R
HASTINGS       CLEAR     53  43  68 NW8       30.21R
HEBRON         CLEAR     53  48  83 NW3       30.18R
HOLDREGE       CLEAR     49  44  85 CALM      30.23R
KEARNEY *      CLEAR     50  43  76 NW8       30.24R
YORK           CLEAR     48  46  93 NW7       30.20R
$$

NEZ011>018-030>034-042>045-211200-
NORTHEAST NEBRASKA

CITY           SKY/WX    TMP DP  RH WIND       PRES   REMARKS
NORFOLK        CLEAR     50  44  80 W8        30.18R
ALBION         CLEAR     45  40  85 N6        30.21R
BLAIR          CLEAR     55  48  75 NW9       30.12R
COLUMBUS *     CLEAR     52  45  76 W6        30.19R
FREMONT        CLEAR     50  47  90 W5        30.14R
TEKAMAH        CLEAR     54  47  77 W9        30.12R
WAYNE          CLEAR     50  45  81 NW6       30.16R
$$

NEZ050>053-065>068-078-088>093-211200-
SOUTHEAST NEBRASKA

CITY           SKY/WX    TMP DP  RH WIND       PRES   REMARKS
LINCOLN        CLEAR     55  48  77 CALM      30.17R
OMAHA EPPLEY   CLEAR     56  48  74 W7        30.12R
BEATRICE       CLEAR     50  49  95 CALM      30.15R
FALLS CITY     CLEAR     56  54  93 NW6       30.11R
NEBRASKA CITY    N/A     56  48  74 W9        30.13R
PLATTSMOUTH    CLEAR     54  49  86 W5        30.13R
$$

NEZ044-045-051>053-067-211200-
OMAHA AREA

CITY           SKY/WX    TMP DP  RH WIND       PRES   REMARKS
OMAHA EPPLEY   CLEAR     56  48  74 W7        30.12R
BLAIR          CLEAR     55  48  75 NW9       30.12R
FREMONT        CLEAR     50  47  90 W5        30.14R
MILLARD        CLEAR     56  51  82 NW6       30.12R
OFFUTT AFB     CLEAR     53  53  99 W6        30.12R
PLATTSMOUTH    CLEAR     54  49  86 W5        30.13R
WAHOO          FAIR      54  47  79 NW5       30.14R
$$



USA.gov is the U.S. government's official web portal to all federal, state and local government web resources and services.